Weather in Snovsk

Ukraine / Chernihiv Region     51°48′59″N   31°56′32″E
temp.,
°C
wind,
m/s
gust,
m/s
humid.,
%
clouds,
%
prec.,
mm/h
press.,
hPa
HPBL,
m
22 june, tue
tue2200:00+20ese411945 0.0 1015218
03:00+18ese489360 0.0 1015147
06:00+18ese37893 0.0 1016129
09:00+24ese58695 0.0 1016337
12:00+28ese685539 0.0 1015637
15:00+29ese5953100 0.0 10151105
18:00+25ese5107048 0.0 1016368
21:00+21ese498711 0.0 1016174
23 june, wed
wed2300:00+20ese410925 0.0 1017151
03:00+19ese359211 0.0 101774
06:00+20ene36916 0.0 1017110
09:00+26e596999 0.0 1017401
12:00+29e6959100 0.0 1017786
15:00+30ese6861100 0.0 10161027
18:00+29e5969100 0.0 1016721
21:00+24e3789100 0.0 1017141
24 june, thu
thu2400:00+21ese349393 0.0 101856
03:00+20ese349496 0.0 101857
06:00+21ese2391100 0.0 101863
09:00+26e337182 0.0 1018344
12:00+30ese45555 0.0 1017771
15:00+31ese335183 0.0 10171162
18:00+30ese356311 0.0 1016901
21:00+25se368211 0.0 101699
25 june, fri
fri2500:00+22sse22905 0.1 101720
03:00+21se22915 0.1 101624
06:00+21se23885 0.0 101650
09:00+26se45705 0.0 1016382
12:00+29s34565 0.0 1016960
15:00+31s23485 0.0 10161135
18:00+30s23580 0.0 1014977
21:00+25se227268 0.0 101311
26 june, sat
sat2600:00+23se228185 0.3 101319
03:00+21sse22925 1.6 101428
06:00+22s1190100 0.1 101424
09:00+26sse2275100 0.1 1013314
12:00+29se235976 0.1 1013967
15:00+30sse2254100 0.1 10131171
18:00+29sw1163100 0.3 1011476
21:00+19nnw499396 3.8 1013260